TimeCST,TemperatureF,Dew PointF,Humidity,Sea Level PressureIn,VisibilityMPH,Wind Direction,Wind SpeedMPH,Gust SpeedMPH,PrecipitationIn,Events,Conditions,WindDirDegrees,DateUTC
12:15 AM,30.2,24.8,80,29.62,7.0,West,15.0,23.0,N/A,Snow,Light Snow,270,2012-11-23 06:15:00
12:35 AM,28.4,23.0,80,29.61,10.0,West,17.3,28.8,N/A,Snow,Light Snow,270,2012-11-23 06:35:00
12:55 AM,28.4,23.0,80,29.62,7.0,West,15.0,24.2,N/A,Snow,Light Snow,280,2012-11-23 06:55:00
1:15 AM,28.4,23.0,80,29.62,5.0,West,16.1,25.3,N/A,Snow,Light Snow,260,2012-11-23 07:15:00
1:35 AM,26.6,23.0,86,29.62,1.8,West,19.6,25.3,N/A,Snow,Light Snow,260,2012-11-23 07:35:00
1:55 AM,26.6,21.2,80,29.62,4.0,West,17.3,21.9,N/A,Snow,Light Snow,260,2012-11-23 07:55:00
2:15 AM,26.6,21.2,80,29.62,1.8,West,17.3,23.0,N/A,Snow,Light Snow,260,2012-11-23 08:15:00
2:35 AM,26.6,21.2,80,29.62,2.5,West,18.4,25.3,N/A,Snow,Light Snow,270,2012-11-23 08:35:00
2:55 AM,24.8,21.2,86,29.62,1.5,West,16.1,23.0,N/A,Snow,Light Snow,270,2012-11-23 08:55:00
3:15 AM,26.6,21.2,80,29.62,1.8,West,18.4,24.2,N/A,Snow,Light Snow,270,2012-11-23 09:15:00
3:35 AM,26.6,21.2,80,29.62,1.8,West,18.4,26.5,N/A,Snow,Light Snow,280,2012-11-23 09:35:00
3:55 AM,26.6,21.2,80,29.62,1.2,West,16.1,21.9,N/A,Snow,Light Snow,280,2012-11-23 09:55:00
4:15 AM,26.6,23.0,86,29.64,1.8,West,17.3,25.3,N/A,Snow,Light Snow,280,2012-11-23 10:15:00
4:35 AM,26.6,23.0,86,29.64,1.8,West,13.8,19.6,N/A,Snow,Light Snow,280,2012-11-23 10:35:00
4:55 AM,26.6,23.0,86,29.65,2.5,WNW,11.5,-,N/A,Snow,Light Snow,290,2012-11-23 10:55:00
5:15 AM,28.4,23.0,80,29.66,2.5,WNW,13.8,26.5,N/A,Snow,Light Snow,300,2012-11-23 11:15:00
5:35 AM,28.4,23.0,80,29.68,3.0,NW,17.3,21.9,N/A,Snow,Light Snow,310,2012-11-23 11:35:00
5:55 AM,26.6,21.2,80,29.69,5.0,NNW,20.7,29.9,N/A,Snow,Light Snow,330,2012-11-23 11:55:00
6:15 AM,26.6,19.4,74,29.71,10.0,NNW,17.3,28.8,N/A,Snow,Light Snow,330,2012-11-23 12:15:00
6:35 AM,26.6,19.4,74,29.72,7.0,NNW,18.4,25.3,N/A,Snow,Light Snow,330,2012-11-23 12:35:00
6:55 AM,24.8,19.4,80,29.74,2.5,NNW,19.6,27.6,N/A,Snow,Light Snow,330,2012-11-23 12:55:00
7:15 AM,24.8,19.4,80,29.75,1.8,NW,18.4,25.3,N/A,Snow,Light Snow,320,2012-11-23 13:15:00
7:35 AM,24.8,19.4,80,29.76,2.0,NW,15.0,23.0,N/A,Snow,Light Snow,320,2012-11-23 13:35:00
7:55 AM,24.8,19.4,80,29.78,1.5,NW,19.6,28.8,N/A,Snow,Light Snow,320,2012-11-23 13:55:00
8:15 AM,24.8,19.4,80,29.79,3.0,NW,19.6,26.5,N/A,Snow,Light Snow,320,2012-11-23 14:15:00
8:35 AM,24.8,19.4,80,29.80,1.8,NW,19.6,25.3,N/A,Snow,Light Snow,310,2012-11-23 14:35:00
8:55 AM,24.8,19.4,80,29.82,1.5,NNW,19.6,26.5,N/A,Snow,Light Snow,330,2012-11-23 14:55:00
9:15 AM,24.8,19.4,80,29.83,1.8,NW,17.3,28.8,N/A,Snow,Light Snow,320,2012-11-23 15:15:00
9:35 AM,26.6,19.4,74,29.84,1.5,NW,16.1,25.3,N/A,Snow,Light Snow,320,2012-11-23 15:35:00
9:55 AM,24.8,19.4,80,29.86,0.5,NW,19.6,28.8,N/A,Snow,Light Snow,320,2012-11-23 15:55:00
10:15 AM,24.8,19.4,80,29.87,1.0,NW,20.7,29.9,N/A,Snow,Light Snow,320,2012-11-23 16:15:00
10:35 AM,26.6,19.4,74,29.88,2.0,NW,25.3,35.7,N/A,Snow,Light Snow,320,2012-11-23 16:35:00
11:15 AM,24.8,19.4,80,29.91,1.0,NW,19.6,31.1,N/A,Snow,Light Snow,310,2012-11-23 17:15:00
11:35 AM,23.0,17.6,80,29.92,2.0,NW,20.7,26.5,N/A,Snow,Light Snow,310,2012-11-23 17:35:00
11:55 AM,23.0,19.4,86,29.93,1.8,NNW,15.0,24.2,N/A,Snow,Light Snow,330,2012-11-23 17:55:00
12:15 PM,23.0,17.6,80,29.94,1.5,NNW,20.7,31.1,N/A,Snow,Light Snow,330,2012-11-23 18:15:00
12:35 PM,23.0,17.6,80,29.95,1.8,NW,18.4,25.3,N/A,Snow,Light Snow,320,2012-11-23 18:35:00
12:55 PM,23.0,17.6,80,29.96,1.2,NNW,20.7,35.7,N/A,Snow,Light Snow,330,2012-11-23 18:55:00
1:15 PM,23.0,17.6,80,29.98,1.8,NW,18.4,23.0,N/A,Snow,Light Snow,320,2012-11-23 19:15:00
1:35 PM,23.0,17.6,80,29.99,1.5,NNW,20.7,31.1,N/A,Snow,Light Snow,330,2012-11-23 19:35:00
1:55 PM,23.0,17.6,80,30.00,2.5,NNW,18.4,24.2,N/A,Snow,Light Snow,330,2012-11-23 19:55:00
2:15 PM,23.0,17.6,80,30.01,2.0,NW,24.2,29.9,N/A,Snow,Light Snow,320,2012-11-23 20:15:00
2:35 PM,23.0,17.6,80,30.01,2.5,NW,15.0,26.5,N/A,Snow,Light Snow,310,2012-11-23 20:35:00
2:55 PM,23.0,17.6,80,30.03,1.5,NW,19.6,28.8,N/A,Snow,Light Snow,320,2012-11-23 20:55:00
3:15 PM,23.0,17.6,80,30.04,1.8,NW,10.4,26.5,N/A,Snow,Light Snow,320,2012-11-23 21:15:00
3:35 PM,23.0,17.6,80,30.05,3.0,NW,17.3,23.0,N/A,Snow,Light Snow,320,2012-11-23 21:35:00
3:55 PM,23.0,15.8,74,30.06,1.8,NW,23.0,35.7,N/A,Snow,Light Snow,310,2012-11-23 21:55:00
4:15 PM,23.0,17.6,80,30.06,2.0,NNW,17.3,26.5,N/A,Snow,Light Snow,330,2012-11-23 22:15:00
4:35 PM,23.0,17.6,80,30.07,5.0,NW,18.4,25.3,N/A,Snow,Light Snow,320,2012-11-23 22:35:00
4:55 PM,23.0,17.6,80,30.07,7.0,NW,16.1,24.2,N/A,Snow,Light Snow,320,2012-11-23 22:55:00
5:15 PM,23.0,15.8,74,30.07,5.0,NW,13.8,26.5,N/A,Snow,Light Snow,310,2012-11-23 23:15:00
5:35 PM,23.0,17.6,80,30.09,7.0,NW,13.8,25.3,N/A,Snow,Light Snow,310,2012-11-23 23:35:00
5:55 PM,23.0,15.8,74,30.09,7.0,NW,11.5,23.0,N/A,Snow,Light Snow,320,2012-11-23 23:55:00
6:15 PM,21.2,15.8,80,30.10,10.0,NW,18.4,27.6,N/A,Snow,Light Snow,320,2012-11-24 00:15:00
6:35 PM,21.2,15.8,80,30.10,7.0,NW,12.7,24.2,N/A,Snow,Light Snow,310,2012-11-24 00:35:00
6:55 PM,21.2,15.8,80,30.10,7.0,NW,13.8,-,N/A,Snow,Light Snow,320,2012-11-24 00:55:00
7:15 PM,21.2,15.8,80,30.11,7.0,NW,12.7,19.6,N/A,Snow,Light Snow,310,2012-11-24 01:15:00
7:35 PM,21.2,15.8,80,30.11,10.0,NW,13.8,19.6,N/A,Snow,Light Snow,310,2012-11-24 01:35:00
7:55 PM,21.2,15.8,80,30.11,10.0,NW,16.1,21.9,N/A,Snow,Light Snow,310,2012-11-24 01:55:00
8:15 PM,21.2,15.8,80,30.12,10.0,NW,17.3,-,N/A,Snow,Light Snow,310,2012-11-24 02:15:00
8:35 PM,21.2,15.8,80,30.12,10.0,NW,16.1,20.7,N/A,Snow,Light Snow,310,2012-11-24 02:35:00
8:55 PM,21.2,15.8,80,30.11,10.0,NW,11.5,18.4,N/A,Snow,Light Snow,310,2012-11-24 02:55:00
9:15 PM,21.2,14.0,74,30.12,10.0,NW,15.0,-,N/A,Snow,Light Snow,310,2012-11-24 03:15:00
9:35 PM,21.2,14.0,74,30.11,10.0,NW,10.4,18.4,N/A,Snow,Light Snow,320,2012-11-24 03:35:00
9:55 PM,21.2,14.0,74,30.11,10.0,NW,10.4,19.6,N/A,Snow,Light Snow,310,2012-11-24 03:55:00
10:15 PM,21.2,14.0,74,30.11,10.0,NW,12.7,19.6,N/A,Snow,Light Snow,320,2012-11-24 04:15:00
10:35 PM,21.2,14.0,74,30.11,10.0,NW,11.5,19.6,N/A,Snow,Light Snow,320,2012-11-24 04:35:00
10:55 PM,21.2,14.0,74,30.12,10.0,NW,13.8,20.7,N/A,Snow,Light Snow,310,2012-11-24 04:55:00
11:15 PM,21.2,14.0,74,30.12,10.0,NW,15.0,19.6,N/A,Snow,Light Snow,320,2012-11-24 05:15:00
11:35 PM,21.2,14.0,74,30.12,10.0,NW,18.4,23.0,N/A,Snow,Light Snow,310,2012-11-24 05:35:00
11:55 PM,21.2,14.0,74,30.12,5.0,NNW,10.4,18.4,N/A,Snow,Light Snow,330,2012-11-24 05:55:00